Laconia, NH

11:45 PM EST on November 14, 2019 (GMT -0500)
Laconia Municipal

Weather History for KLCI - September, 2019

Change the Weather History Date:

Thursday, September 12, 2019

  Actual Average Record
Temperature  
Mean Temperature 58 °F -  
Max Temperature 68 °F 72 °F 91 °F (1983)
Min Temperature 48 °F 50 °F 39 °F (1985)
Degree Days  
Heating Degree Days 6    
Growing Degree Days 8 (Base 50)    
Moisture  
Dew Point 54 °F    
Average Humidity 80    
Maximum Humidity 100    
Minimum Humidity 62    
Precipitation  
Precipitation 0.06 in - - ()
Sea Level Pressure  
Sea Level Pressure 30.17 in    
Wind  
Wind Speed 2 mph ()    
Max Wind Speed 9 mph    
Max Gust Speed -    
Visibility 10.0 miles    
Events Rain    
Averages and records for this station are not official NWS values.
T = Trace of Precipitation, MM = Missing Value Source: Averaged Metar Reports

Daily Weather History Graph

Daily Weather History Graph

Search for Another Location

Airport or City:

Astronomy

Sep. 12, 2019 Rise Set
Actual Time 6:21 AM EDT 7:01 PM EDT
Civil Twilight 5:52 AM EDT 7:30 PM EDT
Nautical Twilight 5:18 AM EDT 8:04 PM EDT
Astronomical Twilight 4:42 AM EDT 8:40 PM EDT
Moon 6:48 PM EDT (9/12) 4:33 AM EDT (9/12)
Length of Visible Light 13h 38m
Length of Day
12h 40m
Waxing Gibbous, 98% of the Moon is Illuminated
Sep 12
Waxing Gibbous
Sep 14
Full
Sep 21
Last Quarter
Sep 28
New
Oct 5
First Quarter

Hourly Weather History & Observations

Time (EDT) Temp. Dew Point Humidity Pressure Visibility Wind Dir Wind Speed Gust Speed Precip Events Conditions
12:56 AM 66.0 °F 64.0 °F 93% 30.04 in 10.0 mi Calm Calm - N/A   Overcast
1:56 AM 66.9 °F 63.0 °F 87% 30.04 in 10.0 mi Calm Calm - N/A   Overcast
2:56 AM 66.9 °F 60.1 °F 79% 30.04 in 10.0 mi West 3.5 mph - N/A   Overcast
3:56 AM 66.0 °F 59.0 °F 78% 30.04 in 10.0 mi West 4.6 mph - N/A   Mostly Cloudy
4:56 AM 64.0 °F 57.0 °F 78% 30.05 in 10.0 mi Variable 3.5 mph - N/A   Partly Cloudy
5:56 AM 63.0 °F 55.9 °F 78% 30.07 in 10.0 mi Variable 3.5 mph - N/A   Clear
6:56 AM 62.1 °F 55.0 °F 78% 30.09 in 10.0 mi Calm Calm - N/A   Scattered Clouds
7:11 AM 62.6 °F 55.4 °F 77% 30.11 in 10.0 mi Calm Calm - N/A   Mostly Cloudy
7:56 AM 61.0 °F 55.0 °F 81% 30.12 in 10.0 mi NW 3.5 mph - 0.00 in Rain Light Rain
8:56 AM 59.0 °F 55.9 °F 90% 30.15 in 10.0 mi ENE 5.8 mph - 0.02 in Rain Light Rain
9:56 AM 57.9 °F 55.0 °F 90% 30.17 in 10.0 mi East 9.2 mph - 0.02 in Rain Light Rain
10:56 AM 57.9 °F 51.1 °F 78% 30.18 in 10.0 mi East 5.8 mph - 0.00 in   Overcast
11:56 AM 55.9 °F 51.1 °F 84% 30.19 in 10.0 mi East 8.1 mph - 0.02 in Rain Light Rain
12:56 PM 57.0 °F 51.1 °F 81% 30.20 in 10.0 mi East 9.2 mph - 0.00 in Rain Light Rain
1:56 PM 60.1 °F 51.1 °F 72% 30.19 in 10.0 mi Variable 3.5 mph - 0.00 in   Overcast
2:56 PM 61.0 °F 52.0 °F 72% 30.19 in 10.0 mi Variable 3.5 mph - N/A   Overcast
3:56 PM 63.0 °F 52.0 °F 67% 30.20 in 10.0 mi SSW 3.5 mph - N/A   Scattered Clouds
4:56 PM 64.9 °F 52.0 °F 63% 30.21 in 10.0 mi Calm Calm - N/A   Overcast
5:56 PM 64.0 °F 54.0 °F 70% 30.23 in 10.0 mi Calm Calm - N/A   Overcast
6:56 PM 60.1 °F 57.0 °F 90% 30.26 in 10.0 mi Calm Calm - N/A   Overcast
7:56 PM 62.1 °F 48.9 °F 62% 30.28 in 10.0 mi NE 5.8 mph - N/A   Overcast
8:56 PM 59.0 °F 48.9 °F 69% 30.30 in 10.0 mi Calm Calm - N/A   Clear
9:56 PM 53.1 °F 50.0 °F 89% 30.32 in 10.0 mi Calm Calm - N/A   Clear
10:56 PM 51.1 °F 48.9 °F 92% 30.33 in 10.0 mi Calm Calm - N/A   Clear
11:56 PM 48.0 °F 48.0 °F 100% 30.35 in 10.0 mi Calm Calm - N/A   Clear